PRISMA (44072 NORAD) Tracking and Keplerian Element Data

This shows tracking and keplerian element data for the satellite.

Feedback or suggestion? Click here.




ElementValue
Catalog44072
NamePRISMA
Epoch Orbit445
Epoch Day111.15879818
Epoch Year2019
RAAN186.5567
Inclination97.899
Eccentricity0.0002864
Argument of Perigee86.7042
Mean Anonmoly273.4506
Mean Motion14.83537816
Decay Rate-5.3E-07
L11 44072U 19015A 19111.15879818 -.00000053 00000-0 00000+0 0 9991
L22 44072 97.8990 186.5567 0002864 86.7042 273.4506 14.83537816 4452

Live tracking and technical data element details for PRISMA (NORAD 44072). PRISMA can be tracked NOW for your location showing map with azimuth and elevation plus other details from your city location.

Track the satellite on the map from your city or location and see movement details for azimuth, elevation, latitude, longitude, range, height, and movement on the map or in text.







IsCatalogInMostPopularTable: catalog: 44072, numindb: 12
Update: records affected: 1



GetName: 44072 PRISMA

Hit Count: updated at: Tue, 23 Apr 2019 01:56:56 GMT